Weather Roundup
Issued by NWS

Home | Current Version | Previous Version | Text Only | Print | Product List | Glossary On
Versions: 1 2 3 4 5 6 7 8 9 10 11 12 13 14 15 16 17 18 19 20 21 22 23 24 25 26 27 28 29 30 31 32 33 34 35 36 37 38 39 40 41 42 43 44 45 46 47 48 49 50
000
NZUS93 KARX 040859
HRRWXR

CURRENT HOURLY OBSERVATIONS ACROSS
MUCH OF THE UPPER MISSISSIPPI VALLEY
NATIONAL WEATHER SERVICE LA CROSSE WI
300 AM CST WED MAR 04 2015


...SOUTHEAST MINNESOTA...


CITY           SKY/WX    TMP DP  RH WIND       PRES   REMARKS
ROCHESTER      CLEAR      2  -6  69 NW20      30.02S WCI -19
ROCHESTER/MAYO FAIR       4  -5  64 W18       30.04S WCI -16
WINONA         CLEAR     10   1  67 NW14      30.07S WCI  -5
AUSTIN         PTCLDY     3  -2  78 NW17      30.05S WCI -17
ALBERT LEA     PTCLDY     3  -2  78 NW12      30.07F WCI -13
DODGE CENTER   PTCLDY     3  -6  66 NW16      30.03F WCI -16
PRESTON        PTCLDY     3  -4  72 NW17G24   30.03S WCI -16
OWATONNA       PTCLDY     3  -4  72 W10       30.08S WCI -12
FARIBAULT      PTCLDY     1  -6  71 W7        30.09S WCI -11
$$

...ELSEWHERE IN MINNESOTA...


CITY           SKY/WX    TMP DP  RH WIND       PRES   REMARKS
MINNEAPOLIS    PTCLDY     2  -7  66 W8        30.10R WCI -12
INTNL FALLS    CLEAR     -9 -15  75 W8        29.91R WCI -25
DULUTH         CLEAR     -4 -11  72 W13       29.89R WCI -23
RED WING       CLEAR      5  -6  61 W8        30.07R WCI  -8
REDWOOD FALLS  CLEAR      0  -8  69 W10       30.12S WCI -16
MANKATO        CLEAR      3  -6  66 NW9       30.11S WCI -11
FAIRMONT       CLEAR      5  -6  61 NW15      30.10F WCI -13
$$

...SOUTHWEST WISCONSIN...


CITY           SKY/WX    TMP DP  RH WIND       PRES   REMARKS
LA CROSSE      CLEAR     10   0  63 NW13      30.04S WCI  -5
PRAIRIE DU CHI PTCLDY    11   1  64 NW18G25   30.03F WCI  -7
BOSCOBEL       CLEAR     12   1  61 VRB6      30.02S WCI   3
LONE ROCK      NOT AVBL
PLATTEVILLE    CLEAR     11   6  79 W10       29.98R WCI  -3
FORT MC COY    PTCLDY    11   2  66 W10G17    30.01R WCI  -2
VIROQUA        FAIR       8   1  72 NW14      29.96R WCI  -9
WIS DELLS      NOT AVBL
$$

...ELSEWHERE IN WISCONSIN...


CITY           SKY/WX    TMP DP  RH WIND       PRES   REMARKS
MILWAUKEE      PTCLDY    24  12  60 NW16G26   29.88R WCI  11
MADISON        CLEAR     16   7  67 NW10G18   29.94R WCI   4
GREEN BAY      CLEAR     15   5  64 W7        29.87R WCI   5
EAU CLAIRE     CLEAR      4  -7  60 W13       30.02R WCI -13
BLACK RVR FLS  FAIR       9  -4  56 NW10G16   30.01R WCI  -6
MEDFORD        CLEAR      4  -4  66 W13       29.88R WCI -12
WAUSAU         CLEAR      8  -1  66 NW13      29.87R WCI  -8
WIS RAPIDS     CLEAR      9  -1  64 NW15G23   29.95R WCI  -8
MARSHFIELD     CLEAR      6  -4  63 W13       29.92R WCI -10
RICE LAKE      CLEAR      1  -6  71 W6        30.01R WCI -10
$$

...NORTHEAST IOWA...


CITY           SKY/WX    TMP DP  RH WIND       PRES   REMARKS
DECORAH        MOCLDY     7  -2  66 NW18G26   30.02S WCI -12
MASON CITY     CLEAR      6  -2  69 NW21      30.09S WCI -14
CHARLES CITY   PTCLDY     9   0  66 NW20      30.06F WCI -11
OELWEIN        CLOUDY     9   0  66 NW28      30.03F WCI -13
$$

...ELSEWHERE IN IOWA...


CITY           SKY/WX    TMP DP  RH WIND       PRES   REMARKS
DES MOINES     CLOUDY    16   3  56 NW13      30.16R WCI   2
IOWA CITY      CLEAR     11   3  70 NW14      30.11R WCI  -5
FORT DODGE     CLOUDY    10  -2  56 NW14G21   30.15R WCI  -5
$$

...NORTHERN ILLINOIS...


CITY           SKY/WX    TMP DP  RH WIND       PRES   REMARKS
CHICAGO-OHARE  MOCLDY    27  21  78 W16       29.89R WCI  15
CHICAGO-MIDWAY CLOUDY    31  22  69 W7        29.89S WCI  24
MOLINE         PTCLDY    13   4  67 NW20      30.06R WCI  -5
ROCKFORD       MOCLDY    16   8  71 NW21      29.96R WCI  -1
PEORIA         PTCLDY    21  11  65 NW13G23   30.02R WCI   9
$$

NOTE: "FAIR" INDICATES FEW OR NO CLOUDS BELOW 12,000 FEET WITH NO
SIGNIFICANT WEATHER AND/OR OBSTRUCTIONS TO VISIBILITY. WIND
SPEEDS ARE IN MILES-PER-HOUR.



USA.gov is the U.S. government's official web portal to all federal, state and local government web resources and services.